TimeEDT,TemperatureF,Dew PointF,Humidity,Sea Level PressureIn,VisibilityMPH,Wind Direction,Wind SpeedMPH,Gust SpeedMPH,PrecipitationIn,Events,Conditions,WindDirDegrees,DateUTC
12:51 AM,39.0,36.0,89,30.12,10.0,NNE,3.5,-,N/A,,Clear,20,2011-10-28 04:51:00
1:51 AM,37.9,35.1,89,30.14,10.0,Calm,Calm,-,N/A,,Clear,0,2011-10-28 05:51:00
2:51 AM,37.9,35.1,89,30.14,10.0,NE,4.6,-,N/A,,Clear,50,2011-10-28 06:51:00
3:51 AM,37.0,35.1,93,30.14,10.0,NNE,3.5,-,N/A,,Clear,30,2011-10-28 07:51:00
4:51 AM,36.0,34.0,93,30.15,10.0,NNE,4.6,-,N/A,,Clear,20,2011-10-28 08:51:00
5:51 AM,35.1,34.0,96,30.15,10.0,NE,3.5,-,N/A,,Clear,40,2011-10-28 09:51:00
6:51 AM,35.1,33.1,92,30.15,10.0,ENE,5.8,-,N/A,,Clear,60,2011-10-28 10:51:00
7:34 AM,33.8,33.8,100,30.15,9.0,Calm,Calm,-,N/A,,Partly Cloudy,0,2011-10-28 11:34:00
7:38 AM,33.8,33.8,100,30.15,2.0,Calm,Calm,-,N/A,,Scattered Clouds,0,2011-10-28 11:38:00
7:48 AM,33.8,33.8,100,30.14,2.0,NE,4.6,-,N/A,,Mostly Cloudy,50,2011-10-28 11:48:00
7:51 AM,34.0,34.0,100,30.15,1.0,NE,5.8,-,N/A,,Mostly Cloudy,50,2011-10-28 11:51:00
7:58 AM,35.6,33.8,93,30.14,0.8,East,3.5,-,N/A,,Overcast,80,2011-10-28 11:58:00
8:29 AM,35.6,35.6,100,30.15,0.2,Variable,3.5,-,N/A,Fog,Fog,0,2011-10-28 12:29:00
8:51 AM,36.0,35.1,97,30.18,1.0,North,3.5,-,N/A,,Overcast,360,2011-10-28 12:51:00
9:10 AM,37.4,35.6,93,30.16,2.5,NNE,5.8,-,N/A,,Overcast,20,2011-10-28 13:10:00
9:39 AM,37.4,35.6,93,30.18,4.0,North,4.6,-,N/A,,Overcast,10,2011-10-28 13:39:00
9:51 AM,37.0,36.0,96,30.20,4.0,Calm,Calm,-,N/A,,Overcast,0,2011-10-28 13:51:00
10:26 AM,37.4,37.4,100,30.18,10.0,North,4.6,-,N/A,,Mostly Cloudy,10,2011-10-28 14:26:00
10:51 AM,39.0,37.0,93,30.18,10.0,NNE,4.6,-,N/A,,Mostly Cloudy,20,2011-10-28 14:51:00
11:51 AM,39.9,37.0,89,30.16,10.0,NNE,8.1,-,N/A,,Mostly Cloudy,30,2011-10-28 15:51:00
11:58 AM,39.2,37.4,93,30.15,10.0,NNE,6.9,-,N/A,,Overcast,30,2011-10-28 15:58:00
12:51 PM,41.0,35.1,79,30.15,10.0,NE,6.9,-,N/A,,Overcast,40,2011-10-28 16:51:00
1:51 PM,39.9,35.1,83,30.13,6.0,NE,5.8,-,0.01,Rain,Light Rain,50,2011-10-28 17:51:00
2:51 PM,39.2,35.6,87,30.09,7.0,ENE,5.8,-,N/A,Rain,Light Rain,70,2011-10-28 18:51:00
3:51 PM,39.0,37.0,93,30.12,5.0,Variable,3.5,-,0.08,Rain,Light Rain,0,2011-10-28 19:51:00
4:05 PM,39.2,37.4,93,30.11,7.0,ENE,5.8,-,0.03,Rain,Light Rain,70,2011-10-28 20:05:00
4:25 PM,39.2,37.4,93,30.11,7.0,NE,5.8,-,0.06,Rain,Light Rain,40,2011-10-28 20:25:00
4:51 PM,39.0,37.0,93,30.12,7.0,NE,6.9,-,0.09,Rain,Light Rain,40,2011-10-28 20:51:00
5:51 PM,39.0,37.0,93,30.12,9.0,NE,6.9,-,0.03,Rain,Light Rain,40,2011-10-28 21:51:00
6:00 PM,39.2,35.6,87,30.10,10.0,NE,8.1,-,0.00,Rain,Light Rain,40,2011-10-28 22:00:00
6:15 PM,37.4,35.6,93,30.10,10.0,NE,8.1,-,N/A,Rain,Light Rain,40,2011-10-28 22:15:00
6:51 PM,37.9,36.0,93,30.12,10.0,NNE,9.2,-,0.02,Rain,Light Rain,30,2011-10-28 22:51:00
7:51 PM,37.9,36.0,93,30.13,10.0,NE,6.9,-,0.00,Rain,Light Rain,50,2011-10-28 23:51:00
8:51 PM,37.9,37.0,97,30.12,10.0,NE,6.9,-,0.01,Rain,Light Rain,40,2011-10-29 00:51:00
9:51 PM,37.9,37.0,97,30.10,10.0,NE,8.1,-,0.00,,Overcast,40,2011-10-29 01:51:00
10:51 PM,39.0,37.0,93,30.09,10.0,NE,5.8,-,0.00,,Overcast,40,2011-10-29 02:51:00
11:51 PM,39.0,37.0,93,30.08,10.0,NE,5.8,-,0.00,,Overcast,50,2011-10-29 03:51:00